When you browse on this site, cookies collect data to enhance your experience and personalize the content and advertising you see.
Visit our Privacy Policy to learn more. By continuing to use the site, you agree to this use of cookies and data.
  • In Hungary
  • List of Countries
  • For 7 days
  • Water Temperature
  • Weather Map
  • News
  • Weather Widgets
  • user-avatar
    Login

    Hourly Weather Tarasov

    Today, 16 October, Wednesday

    Time Temperature Precipitation Wind Pressure Humidity
    00:00 +15°C° 0 mm 2 mps 755 mmHg 52%
    01:00 +15°C° 0 mm 2 mps 755 mmHg 52%
    02:00 +15°C° 0 mm 2 mps 755 mmHg 53%
    03:00 +14°C° 0 mm 2 mps 756 mmHg 54%
    04:00 +14°C° 0 mm 2 mps 756 mmHg 56%
    05:00 +13°C° 0 mm 2 mps 756 mmHg 58%
    06:00 +13°C° 0 mm 2 mps 756 mmHg 60%
    07:00 +14°C° 0 mm 2 mps 756 mmHg 57%
    08:00 +16°C° 0 mm 2 mps 756 mmHg 55%
    09:00 +17°C° 0 mm 2 mps 756 mmHg 53%
    10:00 +19°C° 0 mm 2 mps 756 mmHg 48%
    11:00 +20°C° 0 mm 3 mps 757 mmHg 44%
    12:00 +22°C° 0 mm 3 mps 757 mmHg 40%
    13:00 +22°C° 0 mm 3 mps 757 mmHg 40%
    14:00 +22°C° 0 mm 3 mps 757 mmHg 39%
    15:00 +23°C° 0 mm 4 mps 757 mmHg 39%
    16:00 +21°C° 0 mm 4 mps 757 mmHg 46%
    17:00 +20°C° 0 mm 4 mps 757 mmHg 53%
    18:00 +18°C° 0 mm 4 mps 757 mmHg 59%
    19:00 +18°C° 0 mm 4 mps 757 mmHg 63%
    20:00 +17°C° 0 mm 4 mps 757 mmHg 67%
    21:00 +15°C° 0 mm 4 mps 757 mmHg 71%
    22:00 +15°C° 0 mm 4 mps 757 mmHg 73%
    23:00 +14°C° 0 mm 5 mps 757 mmHg 76%

    Tomorrow, 17 October, Thursday

    Time Temperature Precipitation Wind Pressure Humidity
    00:00 +14°C° 0 mm 5 mps 757 mmHg 78%
    01:00 +14°C° 0 mm 5 mps 758 mmHg 79%
    02:00 +13°C° 0 mm 6 mps 758 mmHg 80%
    03:00 +13°C° 0 mm 6 mps 758 mmHg 81%
    04:00 +11°C° 0 mm 6 mps 758 mmHg 80%
    05:00 +12°C° 0 mm 5 mps 758 mmHg 80%
    06:00 +10°C° 0 mm 5 mps 758 mmHg 80%
    07:00 +11°C° 0 mm 6 mps 758 mmHg 76%
    08:00 +13°C° 0 mm 6 mps 758 mmHg 72%
    09:00 +14°C° 0 mm 6 mps 758 mmHg 68%
    10:00 +16°C° 0 mm 6 mps 758 mmHg 63%
    11:00 +17°C° 0 mm 6 mps 758 mmHg 58%
    12:00 +20°C° 0 mm 7 mps 758 mmHg 53%
    13:00 +20°C° 0 mm 6 mps 758 mmHg 51%
    14:00 +20°C° 0 mm 6 mps 757 mmHg 50%
    15:00 +21°C° 0 mm 6 mps 757 mmHg 48%
    16:00 +19°C° 0 mm 6 mps 757 mmHg 53%
    17:00 +17°C° 0 mm 5 mps 757 mmHg 58%
    18:00 +17°C° 0 mm 4 mps 756 mmHg 62%
    19:00 +15°C° 0 mm 4 mps 756 mmHg 64%
    20:00 +15°C° 0 mm 4 mps 756 mmHg 67%
    21:00 +14°C° 0 mm 5 mps 756 mmHg 69%
    22:00 +14°C° 0 mm 4 mps 756 mmHg 71%
    23:00 +13°C° 0 mm 4 mps 756 mmHg 74%

    Day after tomorrow, 18 October, Friday

    Time Temperature Precipitation Wind Pressure Humidity
    00:00 +12°C° 0 mm 4 mps 756 mmHg 76%
    01:00 +12°C° 0 mm 4 mps 755 mmHg 78%
    02:00 +11°C° 0 mm 4 mps 755 mmHg 81%
    03:00 +11°C° 0 mm 4 mps 755 mmHg 83%
    04:00 +11°C° 0 mm 3 mps 755 mmHg 85%
    05:00 +10°C° 0 mm 3 mps 755 mmHg 87%
    06:00 +10°C° 0 mm 3 mps 755 mmHg 89%
    07:00 +11°C° 0 mm 3 mps 755 mmHg 83%
    08:00 +12°C° 0 mm 3 mps 755 mmHg 77%
    09:00 +14°C° 0 mm 4 mps 755 mmHg 71%
    10:00 +17°C° 0 mm 4 mps 754 mmHg 61%
    11:00 +19°C° 0 mm 4 mps 754 mmHg 51%
    12:00 +21°C° 0 mm 4 mps 754 mmHg 42%
    13:00 +21°C° 0 mm 4 mps 754 mmHg 39%
    14:00 +22°C° 0 mm 3 mps 754 mmHg 37%
    15:00 +22°C° 0 mm 3 mps 753 mmHg 35%
    16:00 +21°C° 0 mm 3 mps 753 mmHg 39%
    17:00 +19°C° 0 mm 2 mps 753 mmHg 44%
    18:00 +18°C° 0 mm 2 mps 753 mmHg 48%
    19:00 +17°C° 0 mm 2 mps 753 mmHg 50%
    20:00 +16°C° 0 mm 2 mps 753 mmHg 52%
    21:00 +16°C° 0 mm 3 mps 753 mmHg 55%
    22:00 +14°C° 0 mm 3 mps 754 mmHg 55%
    23:00 +14°C° 0 mm 3 mps 754 mmHg 56%

    19 October, Saturday

    Time Temperature Precipitation Wind Pressure Humidity
    00:00 +15°C° 0 mm 2 mps 754 mmHg 57%
    01:00 +14°C° 0 mm 2 mps 754 mmHg 58%
    02:00 +14°C° 0 mm 2 mps 754 mmHg 59%
    03:00 +14°C° 0 mm 2 mps 754 mmHg 59%
    04:00 +13°C° 0 mm 2 mps 754 mmHg 61%
    05:00 +13°C° 0 mm 2 mps 754 mmHg 62%
    06:00 +13°C° 0 mm 2 mps 755 mmHg 63%
    07:00 +14°C° 0 mm 2 mps 755 mmHg 59%
    08:00 +16°C° 0 mm 3 mps 755 mmHg 55%
    09:00 +17°C° 0 mm 3 mps 755 mmHg 51%
    10:00 +18°C° 0 mm 3 mps 755 mmHg 46%
    11:00 +20°C° 0 mm 3 mps 756 mmHg 42%
    12:00 +22°C° 0 mm 3 mps 756 mmHg 37%
    13:00 +22°C° 0 mm 3 mps 755 mmHg 36%
    14:00 +22°C° 0 mm 3 mps 755 mmHg 35%
    15:00 +24°C° 0 mm 3 mps 755 mmHg 34%
    16:00 +21°C° 0 mm 3 mps 755 mmHg 38%
    17:00 +19°C° 0 mm 3 mps 755 mmHg 42%
    18:00 +18°C° 0 mm 3 mps 756 mmHg 47%
    19:00 +17°C° 0 mm 3 mps 756 mmHg 49%
    20:00 +16°C° 0 mm 3 mps 756 mmHg 52%
    21:00 +14°C° 0 mm 3 mps 757 mmHg 55%
    22:00 +14°C° 0 mm 3 mps 757 mmHg 57%
    23:00 +13°C° 0 mm 3 mps 757 mmHg 60%

    20 October, Sunday

    Time Temperature Precipitation Wind Pressure Humidity
    00:00 +13°C° 0 mm 3 mps 757 mmHg 62%
    01:00 +12°C° 0 mm 4 mps 757 mmHg 69%
    02:00 +12°C° 0 mm 4 mps 757 mmHg 75%
    03:00 +12°C° 0 mm 4 mps 757 mmHg 81%
    04:00 +11°C° 0 mm 4 mps 758 mmHg 82%
    05:00 +11°C° 0 mm 4 mps 758 mmHg 83%
    06:00 +11°C° 0 mm 4 mps 758 mmHg 84%
    07:00 +12°C° 0 mm 5 mps 759 mmHg 77%
    08:00 +13°C° 0 mm 5 mps 759 mmHg 71%
    09:00 +14°C° 0 mm 5 mps 759 mmHg 65%
    10:00 +15°C° 0 mm 5 mps 759 mmHg 60%
    11:00 +16°C° 0 mm 5 mps 759 mmHg 56%
    12:00 +17°C° 0 mm 5 mps 760 mmHg 51%
    13:00 +17°C° 0 mm 5 mps 759 mmHg 50%
    14:00 +17°C° 0 mm 5 mps 759 mmHg 49%
    15:00 +19°C° 0 mm 5 mps 759 mmHg 47%
    16:00 +16°C° 0 mm 5 mps 759 mmHg 51%
    17:00 +15°C° 0 mm 4 mps 759 mmHg 55%
    18:00 +14°C° 0 mm 4 mps 760 mmHg 60%
    19:00 +13°C° 0 mm 4 mps 760 mmHg 62%
    20:00 +13°C° 0 mm 4 mps 760 mmHg 64%
    21:00 +12°C° 0 mm 4 mps 760 mmHg 67%
    22:00 +12°C° 0 mm 4 mps 760 mmHg 69%
    23:00 +11°C° 0 mm 4 mps 760 mmHg 70%

    21 October, Monday

    Time Temperature Precipitation Wind Pressure Humidity
    00:00 +11°C° 0 mm 4 mps 760 mmHg 72%
    01:00 +11°C° 0 mm 4 mps 760 mmHg 74%
    02:00 +10°C° 0 mm 4 mps 760 mmHg 75%
    03:00 +10°C° 0 mm 4 mps 760 mmHg 77%
    04:00 +10°C° 0 mm 4 mps 761 mmHg 78%
    05:00 +8°C° 0 mm 4 mps 761 mmHg 79%
    06:00 +8°C° 0 mm 4 mps 761 mmHg 80%
    07:00 +10°C° 0 mm 4 mps 761 mmHg 75%
    08:00 +10°C° 0 mm 5 mps 761 mmHg 69%
    09:00 +12°C° 0 mm 5 mps 762 mmHg 64%
    10:00 +14°C° 0 mm 5 mps 762 mmHg 59%
    11:00 +15°C° 0 mm 5 mps 762 mmHg 54%
    12:00 +16°C° 0 mm 5 mps 762 mmHg 48%
    13:00 +16°C° 0 mm 5 mps 761 mmHg 47%
    14:00 +17°C° 0 mm 5 mps 761 mmHg 46%
    15:00 +17°C° 0 mm 5 mps 761 mmHg 45%
    16:00 +15°C° 0 mm 4 mps 761 mmHg 49%
    17:00 +14°C° 0 mm 4 mps 760 mmHg 54%
    18:00 +13°C° 0 mm 4 mps 760 mmHg 58%
    19:00 +12°C° 0 mm 3 mps 760 mmHg 59%
    20:00 +12°C° 0 mm 3 mps 760 mmHg 61%
    21:00 +11°C° 0 mm 3 mps 761 mmHg 62%
    22:00 +11°C° 0 mm 3 mps 760 mmHg 63%
    23:00 +10°C° 0 mm 3 mps 760 mmHg 64%
    Show more